Temperature
21 21 21 21 18 17 19 20 20 20 21 21 20 20 18 18 18 17 17 17 17 17 17 17 17 17 17 17 17 17 17 18 18 18 18 18 18 18 18 18 18 18 18 18 18 18 18 18 18
21 21 21 20 17 18 19 19 20 21 21 21 20 20 18 18 17 17 17 17 18 18 17 17 17 17 17 17 17 17 17 17 17 17 18 18 18 18 18 17 17 17 18 18 18 18 18 18 18
21 21 21 17 18 18 19 20 20 21 22 21 20 19 18 18 18 17 17 17 18 18 17 17 17 17 17 17 17 17 17 17 17 17 17 17 17 18 18 17 17 17 17 17 17 17 17 17 17
22 21 20 18 19 19 20 20 21 21 21 21 20 18 18 18 18 18 17 17 18 17 17 17 17 17 17 17 17 17 17 17 17 17 17 17 17 17 17 17 17 17 17 17 17 17 17 17 17
22 21 18 18 19 20 20 21 21 21 20 20 19 18 18 18 18 18 17 17 18 17 17 17 17 17 17 17 17 17 17 17 17 17 17 17 17 17 17 17 17 17 17 17 17 17 17 17 17
22 19 18 18 19 20 20 21 21 20 20 20 19 18 17 18 18 17 17 17 17 17 17 17 17 17 17 17 17 17 17 17 17 17 17 17 17 17 17 17 17 17 17 17 17 17 17 17 17
20 17 18 19 19 20 21 22 21 20 20 20 19 17 17 18 18 17 17 17 17 17 17 17 17 17 17 17 17 17 17 17 17 17 17 17 17 17 17 17 16 16 16 16 17 17 17 16 16
22 18 19 19 19 20 21 22 22 21 20 20 20 17 17 18 18 18 17 17 17 17 17 17 17 17 17 17 17 16 17 16 16 16 17 17 17 16 16 16 16 16 16 16 16 16 16 16 16
22 17 18 19 19 20 21 21 21 21 21 20 20 19 19 18 18 18 17 17 17 17 17 17 17 17 17 17 16 16 16 16 16 16 16 16 16 16 16 16 16 16 16 16 16 16 16 16 16
21 18 19 20 20 20 21 21 21 20 19 19 19 19 19 18 18 18 17 17 17 17 17 17 17 17 17 17 16 16 16 16 16 16 16 16 16 16 16 16 16 16 16 16 16 16 16 16 16
20 19 20 21 22 22 21 21 21 20 18 19 19 18 18 18 18 18 17 17 17 17 17 17 17 17 17 16 16 16 16 16 16 16 16 16 16 16 16 16 16 16 16 16 16 16 16 16 16
20 21 21 22 22 22 21 21 21 20 20 20 20 19 18 18 18 18 17 17 17 17 17 17 17 17 16 16 16 16 16 16 16 16 16 16 16 16 16 16 16 16 16 16 15 15 15 15 15
20 21 22 22 22 22 22 21 21 20 20 20 19 19 18 18 18 18 18 17 17 17 17 17 17 17 16 16 16 16 16 16 16 16 16 16 16 16 16 16 16 16 15 15 15 15 15 15 15
21 21 21 22 22 22 21 20 20 20 20 19 19 19 18 18 18 18 18 17 17 17 17 17 17 17 16 16 16 16 16 16 16 16 16 16 16 16 15 15 15 15 15 15 15 15 15 15 15
22 21 20 21 21 21 21 19 19 20 19 19 18 18 18 18 18 18 18 17 17 17 17 17 17 16 16 16 16 16 16 16 16 16 15 15 15 15 15 15 15 15 15 15 15 15 15 15 15
21 20 19 20 21 21 20 18 19 20 19 18 18 18 18 18 18 18 18 17 17 17 17 17 16 16 16 16 16 16 16 16 16 15 15 15 15 15 15 15 15 15 15 15 15 15 15 15 15
19 18 19 20 20 20 19 18 19 20 19 18 18 18 18 18 18 18 18 17 17 17 17 16 16 16 16 16 16 16 16 16 16 15 15 15 15 15 15 15 15 15 15 15 15 15 15 15 14
19 19 19 19 20 20 19 18 18 19 19 18 18 18 18 18 18 18 18 17 17 17 17 17 16 16 16 16 16 16 16 16 15 15 15 15 15 15 15 15 14 14 14 14 14 14 14 14 14
20 20 19 20 20 20 19 18 18 19 18 18 18 18 18 18 18 18 17 17 17 17 17 17 16 16 16 16 16 16 15 15 15 15 15 15 15 15 15 14 14 14 14 14 14 14 14 14 14
20 20 19 20 21 20 18 18 18 18 18 18 18 18 18 18 18 17 17 17 17 17 17 17 16 16 16 16 16 15 15 15 15 15 15 15 15 15 14 14 14 14 14 14 14 14 14 14 14
20 20 20 20 20 19 19 18 18 18 18 18 18 18 18 18 18 18 17 17 17 17 16 16 16 16 16 16 16 15 15 15 15 15 15 15 15 14 14 14 14 14 14 14 14 14 14 14 13
20 21 21 20 19 17 19 17 17 17 17 17 17 18 18 18 18 18 17 17 17 17 16 16 16 16 16 16 15 15 15 15 15 15 15 15 14 14 14 14 14 14 14 14 13 13 13 14 13
20 21 21 20 19 18 18 17 16 17 17 17 17 17 18 18 18 18 17 17 17 16 16 16 16 16 16 16 15 15 15 15 15 15 15 15 14 14 14 14 14 14 14 13 13 13 13 13 13
21 20 19 17 17 17 17 17 17 16 17 17 17 18 18 18 18 18 17 17 17 16 16 16 16 16 16 15 15 15 15 15 15 15 14 14 14 14 14 14 14 14 13 13 13 13 13 13 13
19 17 16 17 16 16 17 17 17 17 18 18 17 18 18 18 18 17 17 17 16 16 16 16 16 16 16 15 15 15 15 15 15 14 14 14 14 14 14 14 14 14 13 13 13 13 13 13 13
19 17 16 16 16 16 17 17 17 18 18 18 18 18 18 18 18 17 17 17 17 16 16 16 16 16 16 15 15 15 15 15 14 14 14 14 14 14 14 14 14 13 13 13 13 13 13 13 13
19 17 17 16 16 16 16 17 18 18 17 17 17 17 17 17 17 17 17 17 16 16 16 16 16 16 16 15 15 15 15 15 14 14 14 14 14 14 14 14 13 13 13 13 13 13 13 13 13
19 18 15 16 16 16 16 16 16 17 16 16 16 16 17 17 17 17 17 17 16 16 16 16 16 16 15 15 15 15 15 14 14 14 14 14 14 14 13 13 13 13 13 13 13 13 13 13 13
19 18 16 15 15 15 15 16 17 16 16 16 16 17 17 17 17 17 17 16 16 16 16 16 16 16 15 15 15 15 15 14 14 14 14 14 14 13 13 13 13 13 13 13 13 13 13 12 12
18 18 16 16 15 14 14 15 17 16 16 16 16 17 17 17 17 17 16 16 16 16 16 16 15 15 15 15 15 15 15 14 14 14 14 14 13 13 13 13 13 13 13 13 13 12 12 12 12
Wind_Speed
2 1 3 3 6 6 3 1 1 4 4 5 9 9 8 6 4 4 2 4 5 4 4 5 7 8 9 10 10 10 11 12 12 12 12 12 12 12 12 13 13 13 13 13 12 12 12 12 11
1 1 3 5 5 4 2 1 4 4 5 7 8 8 7 6 4 4 2 4 6 5 5 6 8 9 10 10 11 11 11 12 13 13 13 13 13 13 13 13 13 13 13 12 12 11 11 11 11
1 1 4 5 4 4 3 1 4 4 5 5 5 5 5 4 3 3 4 6 6 5 5 7 8 9 10 10 11 11 11 12 12 13 13 13 13 13 12 12 13 13 12 12 11 11 11 11 10
3 5 5 6 4 2 4 3 4 5 5 6 6 6 4 3 4 4 7 8 7 5 5 7 9 9 9 10 11 11 11 12 12 12 12 12 13 12 12 12 12 12 12 12 11 10 10 10 10
4 5 6 4 2 1 2 3 4 6 4 5 7 6 4 2 6 9 8 8 7 4 5 7 9 9 10 10 10 11 11 11 12 12 12 12 12 12 12 11 11 11 11 11 10 10 10 10 10
4 5 5 3 2 2 2 3 5 7 7 6 7 6 3 2 6 8 8 7 6 5 5 7 8 9 9 10 10 10 11 11 11 12 12 12 11 11 11 11 11 11 11 11 10 10 10 10 10
5 5 4 3 3 2 3 3 6 6 6 4 6 6 3 1 4 7 7 6 6 5 5 4 6 7 8 9 9 10 10 10 11 11 11 12 11 10 11 11 11 11 11 11 10 10 10 9 10
5 5 3 2 3 1 2 3 4 7 4 4 5 7 5 5 5 7 6 6 5 4 4 4 4 5 5 6 8 8 9 10 10 10 10 11 11 11 11 11 11 11 11 11 10 10 10 10 10
5 5 2 3 4 3 3 6 3 4 7 4 4 5 7 8 7 8 6 4 4 4 3 3 3 4 4 4 5 6 7 8 8 8 10 9 8 9 9 10 11 11 11 11 11 10 10 10 10
5 4 3 3 4 4 3 5 4 5 7 5 6 6 8 8 8 8 7 5 4 4 3 4 4 3 3 4 5 4 5 5 5 6 6 6 6 7 8 9 10 10 10 10 10 10 10 9 8
4 4 3 2 3 4 4 3 3 7 5 6 9 10 9 8 8 8 7 6 5 4 4 4 4 3 3 3 4 3 4 4 4 4 5 5 5 6 6 6 7 7 7 7 8 8 7 7 6
3 1 3 3 3 3 4 3 4 5 7 9 12 13 11 9 8 7 7 6 5 5 5 4 4 4 3 4 3 3 3 3 4 4 6 6 4 4 4 4 5 5 5 5 5 6 7 7 7
2 1 2 3 4 4 4 4 4 4 6 9 11 12 11 9 8 6 6 6 6 5 4 4 5 4 3 3 2 3 3 3 4 5 5 6 4 4 4 4 4 5 5 5 5 6 6 6 7
4 3 2 2 3 2 5 2 4 4 8 10 11 10 9 9 8 7 6 5 6 5 5 4 5 5 5 4 3 3 3 4 5 5 6 7 6 5 4 4 4 5 5 5 5 6 5 5 5
4 3 1 1 2 2 5 3 3 6 10 10 9 9 8 7 7 7 7 7 7 6 5 5 6 5 5 4 4 4 4 5 4 4 6 7 7 6 5 4 4 4 6 6 6 6 5 5 5
3 3 0 3 3 2 5 3 4 6 11 9 8 8 7 6 6 7 7 7 7 6 6 5 6 5 5 4 4 4 5 5 4 5 6 7 7 8 6 4 4 5 6 5 4 4 5 5 4
2 1 3 4 3 3 4 4 4 5 10 10 8 7 7 6 5 5 6 6 7 7 7 5 5 6 5 4 4 5 4 4 4 5 5 6 7 8 7 5 4 5 5 4 4 4 4 4 4
4 3 4 5 3 4 4 4 3 5 9 10 9 8 7 8 7 6 6 6 6 6 7 6 6 5 6 4 4 4 4 3 4 4 5 6 6 7 7 5 5 6 4 4 4 4 4 3 3
4 3 4 5 4 4 5 4 5 5 7 8 8 8 8 8 6 5 5 6 5 5 6 6 6 5 5 4 3 3 2 1 2 3 4 5 6 6 6 4 4 4 4 3 3 3 4 3 3
2 2 3 3 2 4 4 5 4 5 8 10 11 10 10 7 5 5 6 5 6 5 6 7 7 6 5 4 3 3 3 2 2 2 4 5 6 5 6 5 3 3 3 4 3 3 3 2 2
3 4 4 4 0 1 2 4 4 4 3 5 7 9 9 10 10 8 7 6 6 6 6 7 6 6 5 5 4 4 4 3 3 2 2 2 4 5 5 4 3 3 3 3 2 3 3 2 1
4 5 5 3 2 3 3 3 6 5 3 5 6 6 8 9 9 9 9 8 8 7 6 6 6 6 5 6 6 6 4 3 2 1 1 1 3 4 4 4 3 3 2 2 2 2 2 3 1
6 4 3 2 3 1 1 3 6 1 3 7 8 8 9 9 10 10 10 10 9 8 7 6 7 6 5 6 7 6 4 2 1 1 2 1 1 2 3 3 3 3 2 2 2 2 2 2 2
2 3 5 4 3 2 4 4 5 4 7 7 8 8 9 9 8 9 9 8 7 7 6 6 7 6 5 6 6 6 6 4 3 2 2 1 0 0 1 2 2 2 2 2 2 2 3 2 2
4 5 3 3 2 5 2 3 5 5 5 7 8 8 8 8 8 8 9 9 9 9 8 7 7 6 6 6 6 5 6 6 5 4 3 2 1 1 2 1 1 1 2 2 2 2 2 2 2
3 7 6 4 4 4 2 3 4 3 1 2 4 5 6 6 8 9 10 10 9 10 9 8 8 7 7 7 6 5 5 4 4 4 4 3 3 2 2 2 2 2 2 2 3 2 2 1 2
3 4 6 5 2 2 3 3 4 4 3 2 3 4 3 5 7 8 9 9 9 9 10 10 9 8 7 7 6 5 5 4 4 4 3 3 2 2 2 2 2 2 2 2 3 2 2 2 1
5 6 5 4 2 3 3 3 4 4 2 1 3 4 3 3 4 5 6 8 9 9 9 8 8 8 8 7 7 6 5 5 4 4 3 3 3 2 2 2 2 2 2 2 2 2 1 2 1
1 2 3 4 5 4 3 5 4 7 5 5 5 4 4 4 5 5 5 5 6 7 8 7 7 7 7 7 6 6 5 5 5 4 4 3 3 3 3 2 2 3 2 2 2 2 2 2 1
5 5 5 4 3 4 3 6 5 4 5 5 4 3 3 3 4 4 4 3 3 5 6 7 6 7 7 6 6 6 6 5 5 4 4 4 3 3 3 3 3 3 3 3 3 2 1 2 2
Wind_Direction
305 24 82 60 56 58 59 358 94 61 57 60 72 80 81 68 86 126 212 132 121 111 97 87 79 77 75 74 72 73 72 71 72 75 75 76 77 79 81 88 90 91 93 91 89 88 89 90 89
331 79 65 58 80 80 30 5 88 96 128 115 81 77 75 69 79 110 119 128 121 113 103 93 86 82 79 77 75 76 76 73 72 75 77 77 78 80 82 86 89 89 91 90 89 88 88 88 87
296 74 75 67 90 134 152 178 133 111 92 97 86 62 76 102 105 132 154 137 116 104 100 101 92 87 83 79 77 76 76 76 75 75 76 78 80 82 84 87 88 87 88 89 90 89 90 88 85
62 45 56 75 96 163 158 168 131 99 65 61 96 71 60 88 136 135 131 125 114 105 102 103 98 91 86 82 78 78 77 77 75 75 75 77 80 81 84 87 88 88 88 89 89 90 91 91 88
66 71 65 68 83 106 135 138 118 94 85 77 91 91 64 30 112 119 125 124 121 116 108 106 102 97 93 90 86 84 83 80 78 75 76 78 80 81 84 88 89 89 89 89 88 88 89 92 92
54 68 84 92 103 102 103 115 103 95 100 97 97 100 87 101 113 123 128 123 124 130 120 111 108 105 100 96 92 87 84 82 79 76 75 75 76 80 86 90 91 91 92 90 88 88 89 91 91
104 92 109 128 112 98 130 115 109 110 102 116 120 101 115 137 133 128 128 126 122 126 121 112 111 109 106 101 98 93 90 86 83 80 76 72 71 75 87 90 88 88 89 88 86 86 87 88 89
122 98 83 107 127 148 131 102 108 109 105 117 112 125 161 194 147 121 120 118 118 118 120 123 113 108 110 109 104 99 92 89 86 82 78 73 70 78 90 89 86 86 85 83 81 80 82 85 85
89 84 121 183 161 170 124 97 77 84 94 77 90 137 162 155 130 115 111 101 110 117 123 131 127 124 127 123 109 103 95 89 85 84 81 73 67 73 83 84 82 84 80 77 76 76 78 77 78
89 122 197 202 168 156 129 123 135 92 86 84 80 94 127 133 129 129 133 131 128 133 143 140 133 139 131 117 102 100 96 90 89 90 84 81 78 75 79 79 80 80 77 72 69 72 70 66 67
120 155 169 138 148 136 120 106 114 120 121 149 144 142 139 134 137 142 145 146 151 147 132 131 136 131 117 100 104 94 95 93 90 88 88 86 78 74 72 72 67 63 61 57 57 59 57 62 70
105 154 154 148 125 123 132 130 107 131 170 165 152 150 146 145 154 155 153 153 143 133 135 139 133 121 118 112 104 96 89 83 82 89 101 96 80 71 70 69 62 57 58 60 60 62 59 64 72
123 160 127 133 107 118 107 112 125 138 144 146 144 145 150 155 158 162 162 153 135 130 135 144 133 130 126 117 112 104 93 94 97 92 97 97 89 80 73 68 65 60 66 73 72 69 67 66 72
161 156 141 130 119 128 118 113 108 151 140 140 141 149 156 158 162 156 153 147 144 143 145 143 133 134 124 116 111 107 103 101 93 93 94 96 96 91 82 75 68 64 69 77 80 75 71 69 72
136 116 48 195 157 166 115 72 156 167 143 143 146 148 153 163 163 164 168 165 161 158 153 141 137 130 126 119 115 106 105 103 91 89 92 97 101 99 93 81 69 65 70 75 76 68 69 69 66
61 74 286 263 178 184 124 201 232 167 147 153 159 156 156 165 164 172 168 164 158 151 144 143 134 126 122 120 115 105 101 101 95 93 92 96 98 98 95 84 72 71 74 74 74 65 68 63 60
43 184 237 270 215 167 150 207 227 179 157 162 167 166 164 167 169 170 161 157 155 149 142 136 129 130 127 119 109 107 99 93 94 93 93 95 95 98 98 86 77 78 71 64 76 64 74 73 63
224 212 224 231 230 153 164 211 232 194 170 171 174 174 170 171 182 176 160 150 151 146 141 133 127 129 120 103 86 77 76 72 78 88 94 98 98 101 101 92 85 83 73 61 64 70 60 70 70
207 199 226 236 205 159 190 213 226 198 176 177 179 180 180 185 186 165 158 143 137 140 137 131 132 134 122 112 108 102 98 82 72 83 97 100 100 105 106 96 89 86 84 83 81 79 68 54 65
191 206 250 275 202 175 200 241 239 207 195 189 184 185 186 181 169 165 158 150 145 153 151 142 143 142 139 140 141 137 131 112 96 78 79 91 97 109 118 110 109 105 98 84 77 83 83 54 61
221 212 230 233 301 91 127 304 281 259 215 193 193 190 186 180 178 174 167 166 156 155 161 157 153 147 141 134 113 92 70 57 48 53 56 58 94 103 116 117 117 123 117 117 107 104 108 103 25
235 231 218 200 135 244 168 246 275 240 212 203 200 198 194 185 178 175 171 170 171 169 167 163 154 147 142 134 129 128 128 137 178 169 128 68 97 104 115 120 121 129 124 130 136 123 123 123 102
220 232 202 191 173 244 224 180 277 233 213 221 209 200 193 183 179 180 179 177 173 164 164 161 152 150 149 144 144 141 139 156 149 112 98 87 84 105 117 122 116 129 135 146 134 118 119 127 143
179 41 32 47 77 271 236 180 265 231 215 217 214 203 194 186 179 181 182 170 163 158 163 158 155 157 156 153 151 152 153 150 139 136 133 125 104 93 137 122 117 142 148 152 147 137 134 130 124
81 80 32 1 0 258 258 172 247 253 215 199 198 200 194 185 179 179 178 173 171 170 176 167 165 168 166 162 165 166 162 159 164 168 169 159 153 210 227 166 163 170 178 169 149 134 139 143 143
182 145 161 199 229 278 318 219 259 302 199 163 166 174 176 180 181 183 184 181 182 181 177 174 175 179 175 171 175 173 166 164 173 177 177 179 185 203 208 180 177 177 168 160 156 141 154 142 163
149 179 177 154 220 261 284 288 315 11 37 75 112 116 159 178 178 185 184 181 184 184 181 179 180 181 179 178 174 176 180 175 176 179 176 180 188 190 181 170 163 157 150 150 151 148 168 160 175
165 158 100 127 169 260 284 256 246 251 235 165 143 155 174 171 175 175 183 190 189 186 186 181 179 182 184 182 180 182 180 176 172 163 168 175 184 178 168 165 153 153 141 130 128 150 175 162 195
185 140 126 138 156 166 248 266 236 213 205 190 190 191 185 183 187 192 192 195 192 184 177 177 182 183 187 185 182 173 174 173 165 166 174 175 174 173 176 169 156 157 146 130 127 157 155 155 171
175 184 151 159 213 175 189 264 293 198 194 182 187 193 194 189 187 184 183 178 185 184 183 179 184 185 191 186 178 176 177 169 169 174 179 172 169 172 171 152 147 152 144 136 142 154 151 170 182
Height
1497 1497 1496 1497 1501 1513 1517 1511 1505 1504 1503 1505 1504 1505 1508 1512 1516 1522 1519 1516 1516 1516 1515 1514 1513 1512 1511 1509 1508 1507 1506 1505 1504 1503 1502 1501 1500 1499 1498 1498 1499 1500 1501 1502 1503 1504 1504 1505 1506
1497 1497 1498 1498 1509 1523 1520 1510 1507 1504 1505 1505 1506 1508 1510 1514 1515 1516 1517 1517 1517 1516 1515 1514 1513 1513 1512 1510 1509 1509 1508 1507 1506 1504 1504 1503 1502 1501 1500 1500 1501 1502 1502 1503 1504 1505 1505 1506 1507
1498 1498 1499 1503 1513 1521 1517 1509 1506 1504 1504 1504 1508 1510 1513 1516 1516 1517 1517 1518 1518 1517 1516 1515 1514 1513 1513 1512 1511 1510 1509 1508 1507 1506 1505 1504 1503 1503 1502 1503 1503 1503 1504 1505 1505 1506 1506 1507 1507
1498 1499 1501 1509 1514 1512 1509 1507 1504 1504 1505 1506 1508 1513 1515 1517 1517 1518 1518 1519 1518 1518 1517 1516 1515 1514 1514 1513 1512 1511 1510 1509 1508 1508 1507 1505 1505 1504 1504 1504 1505 1505 1505 1506 1506 1507 1507 1508 1508
1498 1500 1508 1515 1513 1509 1506 1505 1504 1505 1507 1509 1509 1514 1517 1519 1518 1518 1519 1519 1519 1518 1518 1517 1516 1516 1515 1514 1513 1513 1512 1511 1510 1509 1508 1507 1506 1506 1505 1505 1506 1506 1506 1507 1507 1508 1508 1508 1509
1499 1502 1516 1520 1514 1509 1506 1506 1506 1507 1509 1511 1512 1515 1519 1520 1520 1520 1520 1520 1520 1520 1519 1518 1518 1517 1516 1516 1515 1514 1514 1513 1512 1511 1509 1508 1507 1506 1506 1506 1507 1507 1508 1508 1508 1509 1509 1510 1510
1501 1507 1515 1516 1515 1511 1507 1506 1506 1508 1509 1511 1512 1516 1520 1521 1521 1521 1521 1522 1521 1521 1520 1520 1519 1519 1518 1517 1517 1516 1515 1514 1513 1512 1511 1509 1506 1505 1505 1507 1508 1509 1509 1509 1510 1510 1510 1511 1511
1500 1507 1514 1515 1515 1512 1506 1506 1507 1508 1510 1512 1513 1515 1519 1520 1521 1522 1522 1522 1522 1522 1522 1521 1521 1520 1519 1519 1518 1518 1517 1516 1515 1514 1512 1510 1507 1503 1504 1507 1509 1510 1511 1511 1511 1511 1512 1512 1512
1501 1511 1518 1514 1513 1510 1506 1506 1509 1509 1510 1512 1513 1514 1516 1519 1521 1522 1522 1523 1523 1523 1523 1522 1522 1522 1521 1520 1520 1520 1519 1518 1517 1516 1514 1512 1510 1507 1508 1510 1512 1512 1512 1512 1513 1513 1513 1513 1514
1502 1514 1512 1507 1506 1507 1506 1506 1508 1511 1512 1514 1515 1516 1517 1519 1521 1521 1522 1523 1523 1523 1523 1523 1523 1523 1523 1522 1522 1521 1521 1520 1519 1518 1517 1515 1514 1513 1513 1514 1514 1514 1514 1514 1514 1514 1514 1515 1515
1503 1508 1506 1504 1504 1505 1506 1508 1508 1510 1514 1514 1515 1516 1518 1519 1521 1521 1522 1522 1523 1524 1524 1524 1524 1524 1524 1523 1523 1523 1522 1522 1521 1520 1519 1518 1517 1516 1516 1516 1517 1517 1516 1516 1516 1516 1516 1516 1516
1504 1504 1504 1505 1504 1505 1506 1508 1509 1509 1512 1513 1514 1515 1517 1519 1520 1521 1522 1523 1523 1524 1524 1524 1524 1525 1525 1525 1524 1524 1524 1523 1523 1522 1522 1521 1520 1519 1519 1519 1519 1519 1519 1518 1518 1518 1518 1518 1518
1504 1504 1504 1504 1504 1505 1506 1508 1509 1511 1512 1513 1515 1516 1517 1518 1520 1521 1522 1523 1523 1524 1524 1525 1525 1525 1525 1525 1525 1525 1525 1525 1524 1524 1523 1523 1522 1521 1521 1521 1521 1521 1521 1520 1520 1520 1520 1520 1520
1503 1504 1504 1504 1505 1506 1507 1509 1509 1512 1513 1514 1515 1516 1517 1518 1520 1521 1522 1522 1523 1524 1524 1525 1525 1526 1526 1526 1526 1526 1526 1526 1526 1525 1525 1525 1524 1524 1523 1523 1523 1523 1522 1522 1522 1522 1522 1522 1522
1502 1505 1506 1505 1505 1507 1508 1512 1511 1512 1513 1514 1515 1516 1518 1519 1519 1520 1521 1522 1523 1523 1524 1525 1526 1526 1526 1527 1527 1527 1528 1527 1527 1527 1526 1526 1526 1525 1525 1525 1524 1524 1524 1524 1524 1523 1523 1523 1523
1504 1509 1514 1507 1505 1506 1511 1519 1511 1511 1512 1514 1515 1516 1517 1518 1519 1520 1521 1521 1522 1523 1524 1525 1526 1526 1527 1527 1528 1528 1528 1528 1528 1528 1528 1527 1527 1527 1526 1526 1526 1526 1525 1525 1525 1525 1525 1525 1525
1512 1518 1517 1510 1504 1505 1510 1515 1510 1510 1511 1512 1514 1515 1516 1517 1518 1519 1520 1521 1522 1522 1524 1525 1526 1527 1527 1528 1528 1529 1529 1529 1529 1529 1529 1528 1528 1528 1528 1527 1527 1527 1527 1526 1526 1526 1526 1526 1526
1517 1516 1514 1512 1505 1506 1510 1512 1509 1509 1510 1511 1512 1514 1515 1515 1517 1518 1519 1520 1521 1522 1523 1525 1526 1527 1527 1528 1529 1529 1530 1530 1530 1530 1530 1529 1529 1529 1529 1528 1528 1528 1528 1527 1527 1527 1527 1527 1527
1506 1509 1512 1508 1502 1506 1509 1510 1508 1507 1508 1509 1510 1511 1513 1514 1515 1517 1518 1519 1520 1521 1523 1524 1525 1526 1527 1528 1528 1529 1529 1530 1530 1530 1530 1530 1530 1530 1530 1529 1529 1529 1529 1529 1528 1528 1528 1528 1528
1504 1509 1510 1505 1501 1505 1510 1510 1506 1505 1505 1506 1507 1509 1510 1512 1514 1515 1517 1518 1519 1520 1522 1523 1524 1526 1526 1527 1528 1529 1529 1530 1530 1531 1531 1531 1530 1530 1530 1530 1530 1530 1530 1529 1529 1529 1529 1529 1529
1504 1507 1507 1507 1503 1504 1509 1514 1509 1505 1504 1505 1506 1507 1508 1509 1511 1513 1514 1516 1517 1519 1521 1522 1523 1525 1526 1527 1528 1529 1530 1530 1530 1530 1531 1531 1531 1530 1530 1530 1531 1530 1530 1530 1530 1530 1530 1529 1530
1506 1498 1499 1502 1510 1517 1512 1526 1512 1506 1505 1504 1505 1505 1506 1507 1509 1510 1512 1514 1516 1517 1519 1521 1522 1524 1525 1526 1527 1528 1528 1529 1529 1530 1530 1530 1531 1531 1531 1531 1531 1531 1531 1530 1530 1530 1530 1530 1530
1497 1493 1496 1500 1508 1515 1514 1522 1517 1507 1507 1504 1502 1502 1503 1505 1506 1508 1510 1511 1514 1516 1518 1520 1521 1523 1524 1525 1526 1527 1528 1528 1529 1530 1530 1530 1530 1530 1530 1531 1531 1531 1531 1531 1531 1531 1530 1530 1530
1491 1496 1501 1507 1514 1524 1515 1521 1518 1509 1502 1499 1498 1499 1500 1502 1504 1506 1508 1510 1512 1515 1517 1518 1519 1521 1523 1524 1525 1526 1527 1527 1528 1528 1529 1529 1529 1530 1530 1530 1530 1530 1531 1531 1531 1531 1530 1530 1530
1495 1511 1525 1527 1532 1528 1512 1515 1513 1497 1494 1494 1494 1496 1497 1500 1502 1504 1506 1508 1510 1512 1514 1516 1518 1519 1521 1522 1524 1525 1526 1526 1527 1527 1527 1528 1528 1529 1529 1529 1529 1530 1530 1530 1530 1530 1530 1530 1530
1498 1507 1526 1534 1533 1525 1513 1515 1507 1495 1492 1491 1492 1493 1496 1498 1500 1502 1504 1506 1508 1510 1512 1514 1516 1517 1519 1521 1522 1523 1524 1525 1525 1526 1526 1527 1527 1527 1528 1528 1528 1529 1529 1529 1529 1529 1529 1529 1529
1498 1505 1506 1519 1520 1525 1520 1510 1501 1495 1493 1492 1493 1494 1495 1496 1498 1500 1502 1504 1506 1508 1509 1512 1514 1515 1517 1518 1520 1521 1522 1523 1524 1524 1525 1525 1526 1526 1527 1527 1527 1527 1528 1528 1528 1528 1528 1528 1528
1491 1497 1511 1518 1528 1531 1522 1516 1513 1501 1497 1495 1494 1494 1495 1496 1497 1498 1500 1502 1504 1505 1507 1510 1512 1513 1515 1516 1518 1519 1520 1521 1522 1523 1523 1524 1524 1525 1525 1525 1525 1526 1526 1526 1526 1527 1527 1527 1527
1495 1498 1504 1515 1519 1529 1530 1521 1498 1496 1495 1495 1494 1494 1494 1495 1496 1497 1498 1500 1502 1504 1505 1507 1510 1511 1513 1514 1515 1517 1518 1519 1520 1521 1521 1522 1522 1523 1523 1523 1524 1524 1524 1525 1525 1525 1525 1525 1525
1491 1494 1502 1515 1518 1521 1526 1519 1492 1492 1492 1492 1493 1493 1493 1494 1495 1496 1497 1498 1499 1501 1503 1505 1507 1508 1510 1512 1513 1514 1515 1516 1517 1518 1519 1519 1520 1521 1521 1521 1522 1522 1522 1523 1523 1523 1523 1523 1524